Weather History for Spirit of St Louis, MO

Change the Weather History Date:

Wednesday, August 28, 2013

  Actual Average Record
Temperature  
Mean Temperature 82 °F -  
Max Temperature 95 °F 85 °F 99 °F (2007)
Min Temperature 68 °F 62 °F 55 °F (2010)
Cooling Degree Days 16    
Growing Degree Days 32 (Base 50)    
Moisture  
Dew Point 67 °F    
Average Humidity 66    
Maximum Humidity 90    
Minimum Humidity 33    
Precipitation  
Precipitation 0.00 in - - ()
Sea Level Pressure  
Sea Level Pressure 29.98 in    
Wind  
Wind Speed 4 mph (WSW)    
Max Wind Speed 9 mph    
Max Gust Speed -    
Visibility 10 miles    
Events      
Averages and records for this station are not official NWS values.
T = Trace of Precipitation, MM = Missing Value Source: NWS Daily Summary

Daily Weather History Graph

Daily Weather History Graph

Search for Another Location

Airport:

Trip Planner

Search our weather history database for the weather conditions in past years. The results will help you decide how hot, cold, wet, or windy it might be!

Date:

Astronomy

Aug. 28, 2013 Rise Set
Actual Time 6:28 AM CDT 7:38 PM CDT
Civil Twilight 6:01 AM CDT 8:05 PM CDT
Nautical Twilight 5:28 AM CDT 8:38 PM CDT
Astronomical Twilight 4:54 AM CDT 9:12 PM CDT
Moon No Moon Rise 2:14 PM CDT (8/28)
Length of Visible Light 14h 04m
Length of Day
13h 09m
Waning Gibbous, 47% of the Moon is Illuminated
Aug 28
Waning Gibbous
Sep 5
New
Sep 12
First Quarter
Sep 19
Full
Sep 26
Last Quarter

Hourly Weather History & Observations

Time (CDT) Temp. Heat Index Dew Point Humidity Pressure Visibility Wind Dir Wind Speed Gust Speed Precip Events Conditions
12:54 AM 73.0 °F - 66.9 °F 81% 29.97 in 10.0 mi WSW 6.9 mph - N/A   Clear
1:54 AM 71.1 °F - 66.9 °F 87% 29.97 in 10.0 mi Calm Calm - N/A   Clear
2:54 AM 73.0 °F - 66.9 °F 81% 29.96 in 10.0 mi West 4.6 mph - N/A   Clear
3:54 AM 70.0 °F - 66.0 °F 87% 29.97 in 10.0 mi Calm Calm - N/A   Clear
4:54 AM 70.0 °F - 66.0 °F 87% 29.98 in 10.0 mi Calm Calm - N/A   Clear
5:54 AM 70.0 °F - 66.0 °F 87% 29.99 in 10.0 mi Calm Calm - N/A   Clear
6:54 AM 68.0 °F - 64.9 °F 90% 30.01 in 6.0 mi Calm Calm - N/A   Clear
7:54 AM 73.9 °F - 68.0 °F 82% 30.02 in 10.0 mi Calm Calm - N/A   Scattered Clouds
8:54 AM 80.1 °F 82.7 °F 68.0 °F 67% 30.02 in 10.0 mi West 5.8 mph - N/A   Scattered Clouds
9:54 AM 82.9 °F 85.8 °F 68.0 °F 60% 30.02 in 10.0 mi West 6.9 mph - N/A   Clear
10:54 AM 87.1 °F 90.6 °F 68.0 °F 53% 30.01 in 10.0 mi WSW 9.2 mph - N/A   Clear
11:54 AM 90.0 °F 92.4 °F 66.0 °F 45% 30.01 in 10.0 mi WSW 6.9 mph - N/A   Partly Cloudy
12:54 PM 93.0 °F 95.0 °F 64.9 °F 39% 29.99 in 10.0 mi WSW 9.2 mph - N/A   Partly Cloudy
1:54 PM 93.0 °F 94.2 °F 63.0 °F 37% 29.98 in 10.0 mi WSW 8.1 mph - N/A   Partly Cloudy
2:54 PM 93.9 °F 95.6 °F 64.0 °F 37% 29.96 in 10.0 mi Variable 6.9 mph - N/A   Clear
3:54 PM 95.0 °F 95.6 °F 62.1 °F 33% 29.95 in 10.0 mi WSW 6.9 mph - N/A   Partly Cloudy
4:54 PM 93.9 °F 94.8 °F 62.1 °F 35% 29.95 in 10.0 mi SSW 5.8 mph - N/A   Partly Cloudy
5:54 PM 93.0 °F 95.0 °F 64.9 °F 39% 29.95 in 10.0 mi SW 6.9 mph - N/A   Clear
6:54 PM 88.0 °F 91.4 °F 68.0 °F 51% 29.96 in 10.0 mi SSW 4.6 mph - N/A   Clear
7:54 PM 80.1 °F 83.2 °F 70.0 °F 71% 29.96 in 10.0 mi Calm Calm - N/A   Clear
8:54 PM 77.0 °F - 70.0 °F 79% 29.97 in 10.0 mi Calm Calm - N/A   Clear
9:54 PM 75.0 °F - 69.1 °F 82% 29.98 in 10.0 mi Calm Calm - N/A   Clear
10:54 PM 73.0 °F - 69.1 °F 87% 29.98 in 10.0 mi Calm Calm - N/A   Clear
11:54 PM 73.0 °F - 68.0 °F 84% 29.98 in 10.0 mi Calm Calm - N/A   Clear